#timestamp,LO_Frequency,Hit,StdDev 
1458907215.6,286047005.7,N
1458907235.4,286047004.1,N
1458907255.2,286046998.8,N
1458907275.0,286046995.4,N
1458907276.0,286046995.4,N
1458907295.8,286046994.5,N
1458907315.6,286046997.7,N
1458907335.4,286046998.7,N
1458907355.3,286046993.7,N
1458907375.1,286046994.3,N
1458907395.8,286046996.4,N
1458907415.7,286046993.0,N
1458907435.5,286046990.6,N
1458907455.3,286046994.6,N
1458907475.2,286046994.4,N
1458907495.9,286046996.0,N
1458907515.7,286046992.6,N
1458907535.6,286046991.7,N
1458907555.4,286046992.8,N
1458907575.2,286046991.0,N
1458907595.1,286046993.2,N
1458907596.0,286046993.2,N
1458907615.8,286046990.7,N
1458907635.6,286046991.5,N
1458907655.5,286046988.7,N
1458907675.3,286046990.3,N
1458907695.1,286046996.8,N
1458907715.8,286046999.6,N
1458907735.7,286047001.2,N
1458907755.5,286047001.0,N
1458907775.3,286047000.3,N
1458907795.2,286047004.0,N
1458907815.9,286047000.1,N
1458907835.7,286047000.6,N
1458907855.6,286046998.5,N
1458907875.4,286047001.9,N
1458907895.2,286047003.5,N
1458907915.1,286047002.3,N
1458907916.0,286047002.3,N
1458907935.8,286047005.5,N
1458907955.6,286047003.0,N
1458907975.5,286047004.6,N
1458907995.3,286047008.6,N
1458908015.1,286047008.8,N
1458908035.8,286047007.2,N
1458908055.7,286047003.0,N
1458908075.5,286047009.1,N
1458908095.3,286047005.0,N
1458908115.2,286047003.2,N
1458908135.0,286047002.6,N
1458908135.9,286047002.6,N
1458908155.7,286047002.4,N
1458908175.6,286047002.2,N
1458908195.4,286047003.5,N
1458908215.2,286047003.8,N
1458908235.1,286047006.0,N
1458908236.0,286047006.0,N
1458908255.8,286047003.7,N
1458908275.6,286047005.7,N
1458908295.5,286047003.3,N
1458908315.3,286047002.5,N
1458908335.1,286046998.6,N
1458908355.9,286047000.5,N
1458908375.7,286046998.3,N
1458908395.5,286046999.3,N
1458908415.4,286046999.3,N
1458908435.2,286047001.4,N
1458908455.0,286047008.8,Y
1458908455.9,286047008.8,P
1458908475.8,286047005.7,N
1458908495.6,286047005.3,N
1458908515.4,286047004.7,N
1458908535.3,286047006.1,Y
1458908555.1,286047001.7,P
1458908556.0,286047001.7,N
1458908575.8,286047003.2,N
1458908595.7,286047002.6,N
1458908615.5,286047002.2,N
1458908635.3,286047002.5,N
1458908655.1,286047000.1,N
1458908675.9,286047001.4,N
1458908695.7,286047001.8,N
1458908715.5,286047005.0,Y
1458908735.4,286047004.0,P
1458908755.2,286047003.9,P
1458908775.0,286047000.2,N
1458908775.9,286047000.2,N
1458908795.8,286047002.4,N
1458908815.6,286047002.4,N
1458908835.4,286047003.0,N
1458908855.3,286047005.5,Y
1458908875.1,286046999.3,P
1458908895.8,286046995.2,P
1458908915.7,286046996.3,N
1458908935.5,286046990.1,Y
1458908955.3,286046995.8,P
1458908975.2,286046993.3,P
1458908995.9,286046994.5,N
1458909015.7,286046994.4,Y
1458909035.6,286046994.5,P
1458909055.4,286046994.4,P
1458909075.2,286046991.9,P
1458909095.1,286046991.8,Y
1458909096.0,286046991.8,P
1458909115.8,286047002.7,N
1458909135.6,286047003.6,N
1458909155.5,286047005.6,N
1458909175.3,286047005.0,N
1458909195.1,286047006.9,N
1458909215.9,286047008.7,N
1458909235.7,286047006.7,N
1458909255.4,286047009.1,N
1458909275.2,286047010.7,N
1458909295.1,286047009.6,N
1458909296.0,286047009.6,N
1458909315.8,286047010.3,N
1458909335.6,286047010.4,N
1458909355.5,286047007.2,N
1458909375.3,286047003.0,N
1458909395.1,286047004.8,N
1458909415.8,286047005.6,N
1458909435.7,286047004.7,N
1458909455.5,286047007.1,N
1458909475.3,286047006.5,N
1458909495.2,286047008.0,N
1458909515.9,286047007.2,N
1458909535.7,286047007.4,N
1458909555.6,286047007.5,N
1458909575.4,286047008.4,N
1458909595.2,286047007.7,N
1458909615.1,286047009.5,N
1458909616.0,286047009.5,N
1458909635.8,286047008.6,N
1458909655.6,286047008.1,N
1458909675.5,286047009.4,Y
1458909695.3,286047002.5,P
1458909715.1,286047001.8,N
1458909735.9,286047001.4,N
1458909755.7,286046999.8,N
1458909775.5,286047002.2,N
1458909795.3,286046999.3,N
1458909815.2,286046996.8,N
1458909835.0,286046997.0,N
1458909835.9,286046997.0,N
1458909855.7,286046997.6,N
1458909875.6,286046995.2,N
1458909895.4,286046994.1,N
1458909915.2,286046995.6,N
1458909935.1,286046991.9,N
1458909936.0,286046991.9,N
1458909955.8,286046993.0,N
1458909975.6,286046996.4,N
1458909995.5,286046999.1,N
1458910015.3,286046996.5,N
1458910035.1,286046997.4,N
1458910055.9,286046997.8,N
1458910075.7,286046997.1,N
1458910095.5,286046995.0,N
1458910115.3,286046997.5,N
1458910135.2,286046997.5,N
1458910155.0,286047002.8,N
1458910155.9,286047002.8,N
1458910175.7,286047000.1,N
1458910195.6,286047002.6,N
1458910215.4,286047003.6,N
1458910235.2,286047006.8,N
1458910255.1,286047008.2,N
1458910256.0,286047008.2,N
1458910275.8,286047007.5,N
1458910295.6,286047009.2,N
1458910315.5,286047009.9,N
1458910335.3,286047014.0,N
1458910355.1,286047015.3,N
1458910375.9,286047012.6,N
1458910395.7,286047013.1,N
1458910415.5,286047011.4,N
1458910435.4,286047014.0,N
1458910455.2,286047016.3,N
1458910475.0,286047018.1,N
1458910475.9,286047018.1,N
1458910495.8,286047019.7,N
1458910515.6,286047024.2,Y
1458910535.4,286047021.2,P
1458910555.3,286047023.0,P
1458910575.1,286047024.2,P
1458910576.0,286047024.2,Y
1458910595.8,286047003.6,P
1458910615.7,286047004.3,N
1458910635.5,286047001.0,N
1458910655.3,286047000.3,N
1458910675.2,286046999.7,N
1458910695.9,286046998.9,N
1458910715.7,286047001.0,N
1458910735.6,286046998.1,N
1458910755.4,286047000.3,N
1458910775.2,286047002.7,N
1458910795.0,286047002.2,N
1458910795.9,286047002.2,N
